User: anonymous   Login
Location: Unspecified
(0.0000°N, 0.0000°E)
Time: 19:04:20
(UTC+00:00)
Language:

EDUSAT - Orbit

View from above orbital plane
View from above orbital plane
View from above satellite
View from above satellite

Ground track
Ground track

The orbit data is extracted from the following two-line orbital elements,

1 37788U 11044A   17084.94989049 +.00000146 +00000-0 +32487-4 0  9994
2 37788 098.2381 202.9454 0037972 353.1689 125.6633 14.70665545300658
Epoch (UTC): 25 March 2017 22:47:50
Eccentricity: 0.0037972
inclination: 98.2381°
perigee height: 632 km
apogee height: 685 km
right ascension of ascending node: 202.9454°
argument of perigee: 353.1689°
revolutions per day: 14.70665545
mean anomaly at epoch: 125.6633°
orbit number at epoch: 30065

The dashed part of the orbit path shows where the satellite is in the earth's shadow,  

DLR